Content
SEND FEEDBACK

Daily
Averages
Monthly
Summary
United States of America

VERNON, VERMONT


Home > North America > United States > Vermont
Elevation: 238 feet     Latitude: 42 46N     Longitude: 072 31W

WEATHER
 
SELECT A DAY
Number of Records: 445,836;   Date Range: 1/1/95 - 8/12/14
 
SHARE

PRINT THIS DATA

[ ← Previous Day ]
WEATHER ALMANAC - JANUARY 9, 2014
[ Next Day → ]
[ °C ]   °F
Weather ElementAverageHighLow
Temperature14.4 °F26.6 °F (2:15 pm)5 °F (7:15 am)
Dewpoint3.1 °F6.8 °F (9:55 am)-0.4 °F (6:15 am)
Humidity63.1 %79 % (4:35 am)37 % (2:15 pm)
Barometer30.52 in30.61 in (6:35 pm)30.38 in (12:35 am)
Wind Speed2.9 mph12.7 mph (12:35 pm)
Wind Gust19.6 mph (11:15 am)
Weather ElementAverage
Visibility9.9 mi
Wind DirectionESE (121 °)

Weather ElementTotal
Precipitation---
Heating Degree Days49.2 (Base 65)
Averaged from 68 records on January 9, 2014
WEATHER CONDITIONS BREAKOUT
WIND DIRECTION BREAKOUT
WEATHER BY HOUR - JANUARY 9, 2014
[ °C ]   °F
Local TimeTemperatureDewpointHumidityBarometerVisibilityWind DirectionWind SpeedGust SpeedPrecipitationEventsConditions
12:35 AM12.2 °F3.2 °F67 %30.38 in10.0 miSSW (210°)6.9 mphOvercast
12:55 AM12.2 °F3.2 °F67 %30.39 in10.0 miSSW (210°)4.6 mphOvercast
1:15 AM12.2 °F3.2 °F67 %30.39 in10.0 miSSW (210°)3.5 mphOvercast
1:35 AM12.2 °F5.0 °F73 %30.40 in10.0 miSSW (200°)3.5 mphOvercast
1:55 AM12.2 °F3.2 °F67 %30.40 in10.0 miSW (230°)3.5 mphOvercast
2:15 AM12.2 °F3.2 °F67 %30.41 in10.0 miSSW (200°)4.6 mphScattered Clouds
2:35 AM10.4 °F3.2 °F73 %30.41 in10.0 miSouth (190°)4.6 mphMostly Cloudy
2:55 AM10.4 °F3.2 °F73 %30.41 in10.0 miSSW (200°)5.8 mphOvercast
3:15 AM10.4 °F3.2 °F73 %30.42 in10.0 miSSW (210°)4.6 mphOvercast
3:35 AM10.4 °F3.2 °F73 %30.42 in10.0 miSSW (200°)5.8 mphPartly Cloudy
3:55 AM10.4 °F1.4 °F67 %30.42 in10.0 miSSW (210°)3.5 mphClear
4:15 AM8.6 °F1.4 °F73 %30.42 in10.0 miSouth (190°)3.5 mphClear
4:35 AM8.6 °F3.2 °F79 %30.43 in10.0 miCalmClear
4:55 AM8.6 °F1.4 °F73 %30.43 in10.0 miSSW (200°)3.5 mphClear
5:15 AM8.6 °F1.4 °F73 %30.45 in10.0 miCalmClear
5:35 AM6.8 °F1.4 °F79 %30.45 in10.0 miCalmClear
5:55 AM6.8 °F1.4 °F79 %30.46 in10.0 miCalmClear
6:15 AM6.8 °F-0.4 °F72 %30.46 in10.0 miCalmClear
6:35 AM6.8 °F1.4 °F79 %30.46 in10.0 miSSW (200°)3.5 mphClear
6:55 AM6.8 °F-0.4 °F72 %30.47 in10.0 miSouth (180°)4.6 mphClear
7:15 AM5.0 °F-0.4 °F78 %30.48 in10.0 miSSW (200°)3.5 mphClear
7:35 AM6.8 °F-0.4 °F72 %30.50 in10.0 miCalmClear
7:55 AM6.8 °F-0.4 °F72 %30.51 in9.0 miCalmClear
8:15 AM6.8 °F-0.4 °F72 %30.52 in10.0 miCalmClear
8:35 AM6.8 °F-0.4 °F72 %30.53 in10.0 miCalmClear
8:55 AM8.6 °F1.4 °F73 %30.54 in9.0 miCalmClear
9:15 AM10.4 °F3.2 °F73 %30.55 in9.0 miCalmClear
9:35 AM12.2 °F3.2 °F67 %30.56 in10.0 miCalmClear
9:55 AM17.6 °F6.8 °F63 %30.57 in10.0 miCalmClear
10:15 AM21.2 °F6.8 °F54 %30.57 in10.0 miNW (320°)5.8 mphClear
10:35 AM21.2 °F5.0 °F50 %30.57 in10.0 miNW (310°)9.2 mphScattered Clouds
10:55 AM21.2 °F5.0 °F50 %30.56 in10.0 miWNW (300°)8.1 mph18.4 mphPartly Cloudy
11:15 AM23.0 °F3.2 °F43 %30.56 in10.0 miNNW (330°)10.4 mph19.6 mphScattered Clouds
11:35 AM23.0 °F3.2 °F43 %30.56 in10.0 miNW (310°)10.4 mph17.3 mphPartly Cloudy
11:55 AM23.0 °F3.2 °F43 %30.55 in10.0 miWNW (290°)9.2 mphClear
12:15 PM24.8 °F5.0 °F43 %30.55 in10.0 miNNW (340°)8.1 mphClear
12:35 PM24.8 °F5.0 °F43 %30.54 in10.0 miNNW (340°)12.7 mph18.4 mphClear
12:55 PM24.8 °F5.0 °F43 %30.54 in10.0 miNorth (350°)12.7 mphClear
1:15 PM24.8 °F5.0 °F43 %30.53 in10.0 miNorth (360°)6.9 mphClear
1:35 PM24.8 °F3.2 °F40 %30.53 in10.0 miNNW (340°)5.8 mphClear
1:55 PM24.8 °F5.0 °F43 %30.54 in10.0 miNorth (350°)8.1 mphClear
2:15 PM26.6 °F3.2 °F37 %30.55 in10.0 miNorth (10°)6.9 mphClear
2:35 PM26.6 °F5.0 °F40 %30.55 in10.0 miNorth (350°)4.6 mphClear
2:55 PM26.6 °F3.2 °F37 %30.56 in10.0 miCalmClear
3:35 PM26.6 °F3.2 °F37 %30.57 in10.0 miNNW (340°)4.6 mphClear
3:55 PM26.6 °F3.2 °F37 %30.58 in10.0 miCalmClear
4:15 PM26.6 °F3.2 °F37 %30.58 in10.0 miCalmClear
4:35 PM23.0 °F3.2 °F43 %30.58 in10.0 miCalmClear
4:55 PM21.2 °F5.0 °F50 %30.58 in10.0 miCalmClear
5:15 PM19.4 °F6.8 °F58 %30.59 in10.0 miCalmClear
6:15 PM17.6 °F6.8 °F63 %30.60 in10.0 miCalmClear
6:35 PM17.6 °F6.8 °F63 %30.61 in10.0 miCalmClear
6:55 PM15.8 °F5.0 °F62 %30.61 in10.0 miCalmClear
7:15 PM14.0 °F3.2 °F62 %30.61 in10.0 miCalmClear
7:35 PM12.2 °F5.0 °F73 %30.61 in10.0 miCalmClear
7:55 PM12.2 °F5.0 °F73 %30.61 in10.0 miCalmClear
8:15 PM12.2 °F3.2 °F67 %30.60 in10.0 miCalmClear
8:35 PM10.4 °F3.2 °F73 %30.60 in10.0 miCalmClear
8:55 PM10.4 °F3.2 °F73 %30.60 in10.0 miSouth (170°)3.5 mphClear
9:15 PM10.4 °F3.2 °F73 %30.61 in10.0 miSouth (180°)3.5 mphClear
9:35 PM8.6 °F3.2 °F79 %30.60 in10.0 miCalmClear
9:55 PM8.6 °F3.2 °F79 %30.60 in8.0 miCalmClear
10:15 PM8.6 °F1.4 °F73 %30.59 in10.0 miCalmClear
10:35 PM8.6 °F1.4 °F73 %30.58 in10.0 miCalmClear
10:55 PM8.6 °F1.4 °F73 %30.58 in10.0 miCalmClear
11:15 PM8.6 °F1.4 °F73 %30.57 in10.0 miCalmClear
11:35 PM6.8 °F1.4 °F79 %30.55 in10.0 miCalmClear
11:55 PM6.8 °F1.4 °F79 %30.55 in10.0 miCalmClear
Hourly data recorded from KEEN, located miles away from Vernon, Vermont







STORIES FROM OUR PARTNERS